Location: Bernay
(48.6766°N, 2.9386°E)
Time: 00:55:42
(UTC+00:00)

SJ 16-02 - Pass Details

Date: 21 April 2026
Orbit: 582 x 592 km, 75.0° (Epoch: 19 May)

Event Time Altitude Azimuth Distance (km) Brightness Sun altitude
Rises 23:05:22 0° 329° (NNW) 2,823 5.8 -28.5°
Reaches altitude 10° 23:07:49 10° 317° (NW) 1,915 4.6 -28.6°
Enters shadow 23:10:04 23° 291° (WNW) 1,270 3.2 -28.7°
